Regional Weather Roundup
Issued by NWS

Home | Current Version | Previous Version | Text Only | Print | Product List | Glossary On
Versions: 1 2 3 4 5 6 7 8 9 10 11 12 13 14 15 16 17 18 19 20 21 22 23 24 25 26 27 28 29 30 31 32 33 34 35 36 37 38 39 40 41 42 43 44 45 46 47 48 49 50
000
ASUS44 KLUB 200110
RWRTX
WEST TEXAS WEATHER ROUNDUP
NATIONAL WEATHER SERVICE LUBBOCK TX
700 PM CST SUN FEB 19 2017

NOTE: "FAIR" INDICATES FEW OR NO CLOUDS BELOW 12,000 FEET WITH NO
SIGNIFICANT WEATHER AND/OR OBSTRUCTIONS TO VISIBILITY.

TXZ004-006>008-010-012-014-016-OKZ002-200200-
TEXAS PANHANDLE/OKLAHOMA PANHANDLE

CITY           SKY/WX    TMP DP  RH WIND       PRES   REMARKS
AMARILLO       CLOUDY    55  42  61 S16       29.83R
BORGER         CLOUDY    60  41  49 S13G22    29.80R
CANADIAN       PTCLDY    60  47  61 W15       29.81R
DALHART        PTCLDY    56  34  43 S15       29.80R
DUMAS          PTCLDY    54  37  51 S15       29.80S
GUYMON         MOCLDY    61  36  39 S13G26    29.75F
HEREFORD       CLOUDY    56  37  48 SW10      29.86R
PAMPA          LGT RAIN  55  47  73 S7        29.82F
PERRYTON       MOCLDY    63  36  36 SW18G26   29.79S
$$

TXZ026-029-035-045-048-200200-
SOUTHERN PANHANDLE/SOUTH PLAINS/ROLLING PLAINS

CITY           SKY/WX    TMP DP  RH WIND       PRES   REMARKS
CHILDRESS      CLOUDY    67  45  45 W13       29.83R
SEMINOLE       CLOUDY    56  39  53 CALM      29.89S
LUBBOCK        CLOUDY    56  42  59 S13       29.87S
PLAINVIEW      CLOUDY    55  43  64 S16       29.84F
SNYDER         CLOUDY    60  42  51 W17G25    29.87F
$$

TXZ052-054-060>062-072-078-127-140-154-169-200200-
PERMIAN BASIN/CONCHO VALLEY/BIG COUNTRY/EDWARDS PLATEAU

CITY           SKY/WX    TMP DP  RH WIND       PRES   REMARKS
ABILENE        CLOUDY    62  58  86 SE7       29.83R
BIG SPRING     CLOUDY    57  47  68 SE12G20   29.86F
BROWNWOOD      CLOUDY    72  63  73 SE10      29.78R
JUNCTION       MOCLDY    62  54  74 NW23G32   29.81R
MIDLAND        CLOUDY    55  48  77 W7        29.87R
ODESSA         MOCLDY    56  45  66 W5        29.88R
SAN ANGELO     CLOUDY    62  48  60 W12       29.83F
SONORA         CLOUDY    59  50  72 N7        29.87S
SWEETWATER     CLOUDY    63  42  47 W20G33    29.87F
WINK           MOCLDY    58  25  28 W7        29.87R
$$

TXZ055-058-074-075-080-082-200200-
FAR WEST/SOUTHWEST MOUNTAINS/TRANS PECOS

CITY           SKY/WX    TMP DP  RH WIND       PRES   REMARKS
ALPINE         CLOUDY    57  28  33 W8        29.98R
DRYDEN           N/A     58  53  84 S7        29.88R
EL PASO        FAIR      55  25  31 W16       29.95R
FORT STOCKTON  CLOUDY    58  40  51 N5        29.89R
GUADALUPE PASS CLEAR     48  25  40 W31G41    29.94R
MARFA          PTCLDY    54  22  28 NW10      29.94S
PECOS          CLOUDY    61  25  25 W6        29.88R
PRESIDIO       FAIR      65  35  33 S6        29.88R
$$

TXZ014-016-019-021>030-083-200200
TEXAS TECH WEST TEXAS MESONET/TEXAS PANHANDLE/NORTHERN SOUTH PLAINS

CITY           SKY/WX    TMP DP  RH WIND       PRES   REMARKS
ABERNATHY 5ENE   N/A     55  42  61 S10       29.86F
AMARILLO 9NNE    N/A     56  41  57 S14       29.82R
AMARILLO 7SSE    N/A     55  40  58 S10       29.84S
AMHERST 1NE      N/A     55  32  42 S5        29.87S
BOOTLEG 11WNW    N/A     50  32  49 S9        29.87R
CANADIAN 6E      N/A     60  50  71 S7        29.78R
CAPROCK CYN SP   N/A     58  44  58 S14       29.85F
CHILDRESS 2NNE   N/A     65  57  75 W9        29.82R
CLARENDON 2WSW   N/A     62  37  40 SW16      29.83S
CLAUDE 12SW      N/A     58  41  53 S16       29.83F
DIMMITT 2NE      N/A     52  38  58 S13       29.86R
FLOYDADA 2NNE    N/A     53  45  75 S18       29.87S
FRIONA 2NE       N/A     51  34  51 S9        29.87R
GOODLETT 3W    LGT RAIN  63  58  82 S13       29.80R
HART 3N          N/A     54  36  51 SW13      29.86S
HEREFORD 2NW     N/A     53  34  48 SW9       29.86R
MCLEAN 1E        N/A     59  41  52 W9        29.83R
MEMPHIS 1NE      N/A     64  42  44 SW15      29.82R
MULESHOE 2SSW    N/A     54  26  33 S7        29.86F
OLTON 6S         N/A     54  35  48 SW7       29.86F
PALO DURO SP     N/A     57  41  54 S10       29.84F
PAMPA 2E         N/A     53  46  77 S3        29.82F
PLAINVIEW 1S     N/A     55  45  68 S15       29.85F
SILVERTON 7ESE   N/A     54  43  67 S12       29.85F
TULIA 2ENE       N/A     56  40  56 S10       29.85S
TURKEY 2WSW      N/A     60  45  56 SW16      29.84S
UMBARGER 3NNE    N/A     51  40  65 S9        29.85S
$$

TXZ033>036-039>041-045>048-200200
TEXAS TECH WEST TEXAS MESONET/SOUTH PLAINS

CITY           SKY/WX    TMP DP  RH WIND       PRES   REMARKS
AIKEN 3WSW       N/A     54  45  70 S13       29.88S
ANDREWS 2NE      N/A     55  43  63 SW3       29.89S
ANTON 6SSW       N/A     55  36  48 SW7       29.86F
BROWNFIELD 2S    N/A     55  42  63 S12       29.88R
DENVR CTY 7WNW   N/A     53  29  39 S5        29.88S
GAIL 2ESE        N/A     57  45  65 SE5       29.84F
LAMESA 2SE       N/A     52  48  86 SW6       29.88R
LEVELLAND 4S     N/A     54  33  45 S6        29.86F
LUBBOCK 3WNW     N/A     57  39  51 S12       29.87R
MORTON 1ENE      N/A     55  30  37 SW8       29.86S
ODONNELL 1N      N/A     52  45  76 E8        29.84F
PLAINS 3N        N/A     54  28  36 S7        29.88S
RALLS 1SE        N/A     53  46  77 SW9       29.88F
REESE CENTER     N/A     56  37  48 S7        29.86R
SEAGRAVES 1SW    N/A     55  39  53 S7        29.88R
SEMINOLE 2NNE    N/A     55  38  51 S6        29.88S
SLATON 2NE       N/A     53  46  77 S14       29.87F
SNYDER 3E        N/A     60  42  52 W14       29.85F
SUNDOWN 8SW      N/A     55  31  39 S8        29.87S
TAHOKA 3NNE      N/A     52  46  79 SE9       29.85F
WOLFFORTH 6SSW   N/A     55  42  61 S10       29.88S
$$

TXZ031-032-036>038-042>044-200200-
TEXAS TECH WEST TEXAS MESONET/ROLLING PLAINS

CITY           SKY/WX    TMP DP  RH WIND       PRES   REMARKS
ASPERMONT 3NE    N/A     66  42  41 W20       29.82R
FLUVANNA 3WNW    N/A     57  43  59 SW17      29.87F
GRAHAM 5SSW      N/A     56  42  59 S16G26    29.88F
GUTHRIE 10WSW    N/A     62  43  49 W20       29.82R
HASKELL 1NW      N/A     68  53  59 W21G37    29.80R
JAYTON 1SSE      N/A     62  44  50 W15       29.84S
KNOX CITY 3NW    N/A     68  49  50 W21G32    29.80R
LK A HENRY 1NW   N/A     60  42  51 W16       29.86S
NORTHFIELD 1S    N/A     64  44  48 SW21      29.82R
ODELL 4ENE       N/A     63  62  96 S7        29.80S
PADUCAH 10SW     N/A     63  44  49 W23       29.82R
POST 1NE       LGT RAIN  56  44  62 SW22G33   29.88R
RRING SPRGS 3N   N/A     59  43  56 SW17      29.85R
SEYMOUR 3NW      N/A     66  62  86 E3        29.77F
SPUR 1W          N/A     60  42  51 W18       29.86R
WEINERT 2NNE     N/A     65  60  82 SE3       29.78S
WHITE RVR 6NE    N/A     58  42  55 SW18      29.87R
$$

TXZ052-054-060>062-072-078-127-140-154-169-200200-
TEXAS TECH WEST TEXAS MESONET/PERMIAN BASIN/
CONCHO VALLEY/BIG COUNTRY/EDWARDS PLATEAU

CITY           SKY/WX    TMP DP  RH WIND       PRES   REMARKS
COYANOSA 2N      N/A     62  27  26 NW6       29.88S
JUNCTION 1SSW    N/A     61  53  74 NW12      29.82R
MERTZON 3NNE     N/A     61  45  55 W7        29.86S
SAN ANGELO 7NW   N/A     62  44  51 W9        29.85R
STRLNG CT 4WSW   N/A     59  43  56 SW2       29.85F
ST LAWRNCE 5SW   N/A     58  46  63 S16       29.87R
SWEETWATR 11SW   N/A     60  43  54 W15       29.86F
WALL 1E          N/A     59  51  75 W7        29.86S
$$

TXZ055-058-074-075-080-082-200200-
TEXAS TECH WEST TEXAS MESONET/FAR WEST/SOUTHWEST MOUNTAINS/TRANS PECOS

CITY           SKY/WX    TMP DP  RH WIND       PRES   REMARKS
PRSMN GAP BBNP   N/A     57  50  77 N13       29.89S
GUADLPE MTN NP   N/A     47  22  36 W21       29.96R
$$




USA.gov is the U.S. government's official web portal to all federal, state and local government web resources and services.